Theta_e
287 287 286 285 285 284 284 283 283 282 282 281 281 281 280 280 280 279 279 279 279 278 278 278 278 277 277 277 277 276 276 276 276 276 275 275 275 275 275 275 275 274 274 274 275 275 275 275 275 275 275 275 274 274 274 274 273 273 273 272 272 272 272
288 287 286 285 285 284 284 283 283 282 282 281 281 280 280 280 279 279 279 278 278 278 278 277 277 277 276 276 276 276 276 275 275 275 275 274 274 274 274 274 274 274 273 273 274 274 274 274 274 274 274 274 274 274 273 273 273 272 272 272 272 271 271
288 287 286 286 285 284 284 283 283 282 282 281 281 280 280 280 279 279 279 278 278 278 277 277 277 276 276 276 276 276 275 275 275 274 274 274 274 274 274 274 274 274 273 273 273 273 273 273 273 273 273 273 273 273 272 272 272 272 272 271 271 271 270
288 287 287 286 285 285 284 284 283 282 282 281 281 280 280 280 279 279 279 278 278 278 277 277 276 276 276 276 275 275 275 275 274 274 274 273 273 273 273 273 273 273 273 272 272 272 272 272 272 272 272 272 272 272 272 272 271 271 271 270 270 270 270
288 287 287 286 285 285 284 284 283 282 282 281 281 280 280 280 279 279 279 278 278 278 277 277 276 276 276 275 275 275 275 274 274 274 273 273 273 273 272 272 272 272 272 271 271 271 271 271 271 271 271 271 271 271 271 271 270 270 270 270 270 270 270
288 287 287 286 285 285 284 284 283 283 282 282 281 280 280 280 279 279 278 278 278 277 277 277 276 276 276 275 275 275 274 274 274 273 273 272 272 272 271 271 271 271 271 271 270 270 270 270 270 270 270 270 270 270 270 270 269 269 269 269 269 270 270
287 287 286 286 285 285 285 284 284 283 282 282 281 280 280 280 279 279 278 278 278 277 277 277 276 276 275 275 275 274 274 274 273 273 272 272 272 271 271 270 270 270 270 269 269 269 269 269 269 269 269 269 269 269 269 269 269 269 269 269 269 269 269
287 286 286 286 285 285 284 284 284 283 282 282 281 281 280 279 279 279 278 278 277 277 277 276 276 276 275 275 275 274 274 274 273 273 272 272 271 271 270 270 270 269 269 269 269 269 268 268 268 268 268 268 268 268 269 269 269 269 269 269 269 269 269
286 286 285 285 285 285 284 284 283 283 282 282 281 281 280 279 279 279 278 278 277 277 277 276 276 275 275 275 275 274 274 274 273 273 272 271 271 271 270 269 269 268 268 268 268 268 268 268 268 268 268 268 268 268 268 269 269 269 269 269 269 268 268
285 285 285 284 284 284 284 283 283 283 282 282 281 281 280 280 279 278 278 277 277 276 276 276 275 275 275 274 274 274 274 273 273 273 272 272 271 270 270 269 268 268 267 267 267 267 268 268 267 268 268 268 268 268 268 268 268 268 268 268 268 268 267
283 283 283 283 283 283 283 283 282 282 282 282 281 281 280 279 279 278 278 277 277 276 276 275 275 275 274 274 274 274 273 273 273 272 272 271 271 270 269 269 268 268 267 267 267 267 267 267 267 268 268 268 268 268 268 268 268 268 268 268 267 267 267
282 282 282 282 282 282 282 282 282 282 281 281 281 281 280 279 279 278 277 277 276 276 275 275 274 274 274 274 274 273 273 272 272 272 271 271 270 270 269 269 268 268 267 267 267 267 267 267 267 267 268 268 268 268 268 268 268 268 267 267 267 266 266
280 280 280 280 280 280 280 280 280 280 280 280 281 281 280 279 278 278 277 277 276 275 275 274 274 274 274 273 273 273 272 272 272 271 271 270 270 269 269 268 268 268 268 267 267 267 267 267 267 267 267 267 267 267 267 267 267 267 267 266 266 266 266
278 278 278 278 278 278 278 278 279 279 279 280 280 281 280 279 278 278 277 276 276 275 275 274 274 274 273 273 273 272 272 272 271 271 270 270 269 269 268 268 268 268 268 268 267 267 267 267 267 267 267 267 267 267 267 267 267 267 266 266 266 266 266
277 276 276 276 276 276 276 277 277 277 277 278 279 280 280 279 278 277 276 276 275 275 274 274 274 273 273 273 272 272 272 272 271 270 270 270 269 269 268 268 268 268 268 268 268 268 267 267 267 267 267 267 267 267 267 267 266 266 266 266 266 265 266
275 275 275 275 275 275 275 276 276 276 276 277 278 279 279 278 277 276 276 275 275 274 274 274 274 273 273 272 272 272 272 271 271 270 270 270 269 269 268 268 268 268 268 268 268 268 268 267 267 267 267 267 267 267 267 267 266 266 266 266 265 265 266
275 275 275 275 275 275 275 275 275 275 275 276 277 278 279 278 276 275 275 274 274 274 274 273 273 273 272 272 272 272 271 271 270 270 270 269 269 269 268 268 268 268 268 268 268 268 268 268 268 268 268 268 268 268 267 267 266 266 266 266 265 265 265
275 275 274 274 274 274 274 274 274 274 274 275 276 277 278 277 276 274 274 274 273 273 273 273 273 272 272 272 271 271 271 271 270 270 270 269 269 268 268 268 268 267 267 267 268 268 269 269 269 268 268 268 268 268 268 267 267 266 266 266 265 264 264
274 274 274 274 274 274 274 274 274 273 273 274 275 276 277 277 276 274 274 273 273 272 272 272 272 272 272 271 271 271 271 271 271 270 270 269 268 268 268 268 268 267 267 267 267 267 267 267 267 267 267 266 267 267 267 267 267 266 266 265 265 264 264
274 274 274 274 273 274 274 274 274 273 273 273 274 275 276 277 276 274 273 273 272 272 272 271 271 271 271 271 270 270 271 271 271 271 270 270 269 268 268 268 268 267 267 266 266 266 266 266 266 265 265 265 265 266 266 267 267 266 266 265 264 264 263
274 274 273 273 273 273 273 273 273 273 273 273 273 275 276 276 276 274 273 272 272 272 271 271 271 271 270 270 270 270 271 271 271 271 270 270 269 269 268 268 267 267 267 266 266 266 266 265 265 265 265 264 265 265 266 266 266 265 265 265 264 264 263
274 273 273 272 272 272 272 272 273 273 273 273 273 274 275 275 275 274 273 272 271 271 271 270 270 270 270 270 269 269 270 270 270 270 270 269 269 269 269 268 268 267 267 266 266 266 265 265 265 265 265 265 265 265 265 265 265 265 264 264 264 263 262
273 272 272 272 272 272 272 272 272 272 272 273 273 273 274 275 274 273 272 272 271 271 270 270 270 269 269 269 269 269 269 269 269 269 269 269 269 268 268 268 268 268 267 266 266 266 265 265 265 265 265 265 265 265 265 264 264 264 264 263 263 263 262
273 272 272 272 271 272 271 271 271 271 271 272 272 272 273 274 274 273 272 272 271 271 270 270 269 269 269 268 268 269 269 269 269 268 268 268 268 268 267 267 268 268 267 266 266 266 266 265 265 265 265 265 265 264 264 264 263 263 263 263 262 262 262
272 272 272 272 271 271 271 271 271 271 271 271 271 272 272 272 272 272 271 270 270 270 270 269 269 268 268 268 268 268 268 268 268 268 267 267 267 267 267 267 267 267 267 267 266 266 266 266 265 265 265 265 264 264 263 263 263 262 262 262 262 262 262
272 272 272 272 271 271 271 271 270 270 270 270 270 271 271 271 271 271 270 269 269 269 268 268 268 268 268 267 267 267 267 267 267 267 267 267 266 266 266 266 266 266 266 266 266 266 266 266 265 265 265 264 264 263 263 262 262 262 261 261 261 261 260
272 271 271 271 271 271 271 271 270 270 270 270 270 270 270 270 270 270 269 269 268 268 268 267 267 267 267 266 266 266 266 266 266 266 266 266 265 265 265 265 265 265 265 266 266 266 266 265 265 264 264 264 263 263 262 262 262 261 261 261 260 258 258
271 271 271 271 271 270 270 270 270 269 269 269 269 269 269 269 269 270 269 269 268 268 267 266 266 266 265 265 265 265 265 265 265 265 265 265 264 264 264 264 264 264 265 265 265 265 265 264 264 264 263 263 263 262 262 261 261 260 260 259 258 257 257
269 269 270 270 270 270 270 270 270 269 269 269 268 268 268 269 269 269 269 268 268 267 266 265 265 265 264 264 264 264 264 264 264 264 264 264 264 264 263 263 263 263 264 265 265 265 264 264 263 263 262 262 262 262 261 261 260 259 259 258 257 256 256
268 268 268 268 269 269 269 269 269 269 269 268 268 268 267 268 268 268 268 267 266 266 265 264 264 264 264 264 264 264 263 263 263 263 263 263 263 263 263 263 263 263 263 264 264 264 264 263 262 262 262 262 261 261 260 260 259 259 258 258 257 256 256
267 267 267 267 268 268 268 268 268 268 268 268 268 267 267 267 266 266 266 266 265 265 264 264 263 263 263 263 263 263 263 263 263 263 263 263 263 263 263 262 262 262 263 263 263 263 263 262 262 262 262 261 261 261 260 259 259 258 257 257 257 256 256
266 267 267 267 267 267 268 268 267 267 267 267 267 267 267 266 266 266 265 265 264 264 263 263 263 262 262 262 262 262 262 262 262 262 262 262 262 262 262 262 262 262 262 262 262 262 262 262 262 261 261 261 260 260 259 259 258 258 257 257 257 256 256
265 266 266 266 266 267 267 267 267 267 267 266 267 267 267 266 266 266 266 265 264 263 263 262 262 262 262 262 262 262 262 262 262 262 262 262 262 262 262 262 262 261 261 261 262 262 262 262 261 261 261 260 260 260 259 259 258 258 257 257 256 256 256
264 265 265 265 266 266 266 266 266 266 266 266 266 266 266 266 265 265 265 265 264 263 262 262 262 262 262 262 262 262 262 262 262 262 262 262 262 262 262 262 262 261 261 261 261 261 261 261 261 261 260 260 260 259 259 258 258 257 257 257 256 256 256
264 264 264 265 265 265 265 264 264 264 265 265 265 265 266 266 265 265 265 265 264 263 262 262 262 262 262 262 262 262 262 262 262 262 262 262 262 262 262 262 262 261 261 261 261 261 261 261 261 260 260 260 260 259 259 258 258 258 257 257 256 256 256
263 263 263 263 264 264 263 263 263 263 263 263 264 264 265 265 265 265 264 264 264 264 263 262 262 262 262 262 262 262 262 262 262 262 262 262 262 262 262 262 262 261 261 261 261 261 261 260 260 260 260 260 259 259 259 259 258 258 257 257 256 256 256
Wind_Speed
35 36 37 38 38 38 38 39 39 39 39 39 39 37 36 35 34 34 34 33 32 32 31 31 31 30 30 28 26 25 24 23 22 21 20 19 18 18 17 17 17 12 11 14 14 14 16 16 17 17 16 15 16 17 18 19 19 19 19 19 19 20 21
34 35 36 37 37 38 39 39 39 40 39 40 40 38 37 36 36 36 35 34 34 34 33 32 32 31 30 29 28 26 25 24 23 21 21 20 18 18 18 17 17 15 12 13 14 14 16 16 17 19 19 18 18 17 17 17 17 17 18 19 20 22 23
32 33 35 36 37 38 38 39 39 39 40 40 40 39 38 38 38 38 37 37 36 36 35 34 33 32 31 30 28 26 24 23 23 22 21 20 18 17 18 16 16 15 13 13 14 14 15 16 16 17 17 17 17 16 16 16 17 18 19 21 22 23 23
31 31 32 34 36 37 38 38 38 39 40 40 40 40 39 38 38 39 39 39 38 37 36 36 34 33 32 31 29 27 25 23 22 21 20 20 18 16 16 16 15 14 13 13 14 14 14 14 15 15 15 15 17 17 17 18 19 20 21 22 22 22 21
30 30 30 32 34 35 36 37 37 38 39 40 40 40 40 39 39 39 40 40 38 37 37 37 36 35 34 33 31 29 27 25 23 22 20 19 19 17 16 16 15 15 15 14 15 15 14 15 15 15 16 15 16 18 19 21 22 22 22 21 21 20 20
29 29 29 31 32 33 35 36 37 38 39 40 39 39 39 39 39 39 39 39 38 37 37 38 37 35 34 34 32 30 29 27 25 23 21 20 19 17 17 16 16 16 16 17 18 18 17 17 17 17 18 17 16 17 20 22 22 21 20 19 19 19 18
28 29 29 29 30 31 33 34 36 37 38 38 39 39 39 38 38 37 37 37 37 37 36 37 36 36 35 34 34 31 30 28 26 24 22 21 19 18 17 17 17 17 17 19 20 20 20 19 18 18 19 19 17 19 21 21 20 20 19 18 17 17 16
26 27 28 28 28 29 30 32 33 35 36 37 38 38 38 38 37 36 36 36 36 36 36 35 36 36 35 35 34 32 30 28 26 24 23 22 21 20 19 19 19 18 18 19 20 20 20 19 19 19 19 19 18 18 20 19 19 19 18 15 14 14 14
21 23 25 26 26 27 28 29 31 32 34 35 37 37 37 37 37 37 36 35 35 35 35 34 34 35 35 34 33 31 29 27 25 24 24 23 22 21 21 20 20 19 19 20 19 19 18 17 18 18 18 18 17 18 19 18 17 17 16 14 15 16 17
18 20 21 22 24 25 26 27 28 30 32 33 35 37 37 37 37 37 37 36 34 33 33 33 33 33 33 33 31 30 28 26 24 23 22 22 22 22 21 20 20 20 20 20 19 19 18 16 17 17 17 18 17 17 17 16 15 16 16 15 16 17 17
16 17 18 19 21 23 24 25 26 27 29 30 33 35 36 37 37 37 37 36 34 33 32 32 32 31 31 31 30 29 27 26 25 24 22 21 21 21 21 20 21 21 21 21 20 20 19 18 18 18 17 17 17 16 17 17 16 16 14 13 12 13 14
15 16 17 19 22 24 25 25 26 26 27 29 31 34 36 36 36 36 36 36 35 34 32 32 31 30 30 30 30 29 28 27 25 24 23 22 21 21 21 21 21 22 22 23 22 21 21 20 19 18 18 17 17 17 17 17 16 13 11 12 13 13 15
16 18 19 20 22 24 25 26 26 26 27 27 29 32 34 36 36 36 36 36 35 34 33 33 32 31 30 30 30 29 28 27 25 24 23 22 21 21 21 20 21 22 22 23 24 23 23 22 20 20 19 18 18 18 16 15 15 15 15 16 16 17 19
16 17 18 19 20 22 24 25 25 25 26 25 25 28 31 35 36 35 35 36 35 35 34 34 33 32 31 30 30 29 28 27 25 24 22 21 21 21 22 22 22 22 23 24 25 25 25 23 22 22 21 19 19 19 18 17 17 17 19 20 21 21 22
15 16 16 17 18 19 21 22 22 23 23 22 22 24 27 32 34 34 34 34 34 34 34 33 33 32 31 30 29 29 28 27 26 25 23 22 23 23 23 24 25 24 25 27 29 29 28 25 24 24 24 24 23 24 23 22 22 22 22 24 24 24 24
14 15 16 16 16 17 18 18 18 19 19 19 21 23 25 28 31 32 32 32 32 32 32 32 31 31 29 29 28 28 27 26 25 24 23 23 23 24 24 25 25 24 25 27 30 31 31 29 27 26 27 28 28 29 30 29 28 26 24 23 21 20 20
15 15 15 16 15 15 16 16 15 16 16 16 18 20 22 25 28 29 30 30 30 31 31 30 30 29 27 26 26 25 24 23 23 22 23 23 23 23 24 25 25 23 23 24 26 28 30 30 29 28 27 28 29 30 31 30 27 24 22 20 15 12 14
16 15 15 15 16 15 15 15 14 14 14 15 16 18 20 23 26 27 28 27 27 28 29 29 28 27 27 26 25 23 22 22 22 22 22 23 24 25 26 25 24 24 24 24 24 25 26 27 26 26 25 26 26 25 26 27 25 21 20 19 14 10 12
15 15 15 15 16 16 16 15 15 14 14 14 15 17 19 21 24 25 26 25 25 25 26 27 26 25 26 26 24 23 22 21 21 21 22 22 23 25 26 25 25 25 26 26 26 27 28 28 29 28 28 28 27 25 23 23 22 21 20 18 16 15 12
15 16 16 16 17 17 16 16 15 15 15 14 15 17 19 20 22 23 23 23 23 22 22 23 23 23 23 23 24 22 21 20 20 20 21 22 23 24 25 26 25 25 25 25 26 27 28 29 30 29 28 28 26 24 21 20 19 20 20 19 18 18 15
16 17 18 17 17 17 17 16 16 16 15 15 15 17 18 18 19 21 21 22 22 22 21 20 21 22 22 21 22 21 19 19 18 18 20 22 23 24 24 23 23 23 22 23 25 26 27 27 26 24 23 23 23 24 23 22 22 22 22 21 20 19 19
18 18 19 17 16 17 18 17 17 16 16 16 16 17 18 17 17 19 20 20 21 21 21 21 21 22 22 21 20 19 18 18 18 18 20 21 21 21 21 20 22 23 23 23 23 24 25 25 24 23 22 23 24 24 24 24 24 23 23 22 21 19 19
18 18 19 17 16 16 17 17 17 17 16 16 16 16 17 16 15 17 19 20 20 19 20 20 19 19 19 17 17 16 16 17 17 17 18 19 18 19 19 20 21 23 24 25 25 24 24 23 24 25 25 24 23 23 22 21 21 20 20 18 18 18 19
16 16 16 16 15 15 16 17 17 17 15 15 15 15 16 14 12 14 17 19 19 18 18 19 18 17 16 15 14 14 15 15 16 17 17 17 17 17 17 19 20 20 21 24 25 24 23 23 25 26 25 24 22 20 19 18 17 17 16 16 18 20 21
15 15 15 15 14 14 16 16 16 16 15 14 14 15 16 14 10 11 14 16 16 16 17 16 15 14 13 12 12 13 14 16 17 17 17 16 15 15 16 17 18 18 18 19 21 22 22 22 23 23 23 22 20 19 19 17 16 16 16 17 19 21 22
15 15 15 15 14 14 14 15 15 16 15 14 14 14 16 17 14 11 12 13 14 15 15 14 12 10 10 11 12 13 15 17 18 19 19 17 16 16 18 19 18 17 17 18 19 19 20 21 21 20 20 20 20 20 19 16 15 15 16 17 19 20 21
14 15 15 15 15 14 14 14 15 15 15 14 14 14 16 18 19 17 14 13 13 13 13 13 12 11 12 14 15 15 16 17 18 19 20 20 19 19 21 21 20 18 17 19 19 20 20 20 20 20 20 20 21 19 17 15 15 15 15 15 16 17 19
15 14 13 14 14 14 14 14 14 15 15 14 14 14 15 17 19 19 18 17 15 12 11 11 11 11 12 13 15 16 17 18 18 19 19 20 21 20 20 21 21 19 18 19 20 20 19 19 20 20 20 20 19 17 15 14 14 13 14 14 13 14 17
17 17 16 15 14 12 11 12 12 12 14 14 13 13 14 15 16 17 17 16 15 13 12 11 11 11 11 13 15 17 18 19 20 20 20 19 20 20 20 20 21 21 20 19 19 19 19 19 19 20 19 17 15 14 13 13 12 12 13 13 12 14 17
17 17 17 18 18 16 12 10 10 10 10 11 12 12 12 12 13 13 13 13 12 12 12 11 11 12 12 14 16 17 18 20 20 21 21 20 20 20 21 22 22 22 21 20 19 19 19 19 19 18 16 15 14 14 13 12 12 12 12 13 14 15 18
16 16 16 17 18 18 14 11 11 10 8 8 9 10 11 11 11 11 12 12 12 12 12 12 13 14 15 16 17 18 19 20 20 20 20 20 20 21 21 22 22 22 22 22 20 19 18 18 17 16 15 15 15 14 13 12 12 12 13 14 14 16 18
16 15 15 14 15 16 16 14 13 13 11 9 9 10 10 11 11 11 12 12 12 12 13 14 15 16 16 16 18 19 19 19 19 19 19 19 19 20 21 22 22 23 23 23 22 21 19 17 16 16 16 16 16 14 13 13 13 14 14 14 15 16 18
15 14 14 14 13 13 14 13 13 13 13 12 12 12 12 12 12 12 12 13 14 14 14 14 15 17 17 17 18 19 19 19 19 18 18 19 20 20 21 21 21 22 23 23 22 22 21 19 18 18 17 17 16 16 15 15 15 14 14 14 16 17 17
15 15 15 14 13 11 11 11 11 12 11 10 11 12 12 12 13 13 13 15 17 18 16 16 16 17 18 18 19 19 18 18 19 18 18 19 19 19 19 20 20 21 23 23 22 22 21 20 19 19 19 19 18 17 16 16 15 14 14 14 16 17 17
17 15 14 14 12 10 10 12 14 15 15 14 12 10 10 13 14 14 15 16 17 18 19 19 19 19 19 19 20 20 19 19 18 18 18 18 17 16 15 16 18 20 22 23 23 23 22 21 20 20 20 20 20 18 18 17 16 15 14 15 16 16 17
18 17 16 14 13 12 13 14 15 14 13 13 13 11 11 13 14 15 17 19 19 19 19 20 21 22 21 21 21 20 20 20 20 19 19 19 18 17 15 14 16 18 20 22 24 23 22 21 21 21 21 21 20 19 19 18 16 15 14 15 15 15 16
Wind_Direction
234 231 228 225 223 222 222 221 220 219 217 216 216 216 215 213 212 212 212 211 211 211 211 213 212 212 212 210 208 208 207 206 207 209 211 212 215 217 217 222 222 227 249 251 249 253 251 252 260 263 263 268 271 269 270 272 274 277 277 276 275 278 283
237 234 231 227 225 223 223 223 222 220 218 216 216 216 215 214 212 212 211 209 210 210 210 211 210 209 209 207 207 206 205 206 206 207 210 209 211 215 215 219 226 231 245 258 255 253 254 254 257 261 263 266 272 275 273 270 268 267 267 270 276 281 286
242 238 233 229 227 226 225 225 224 222 220 218 217 216 216 215 213 213 211 210 210 210 208 208 208 207 206 204 204 204 204 206 206 206 208 208 209 215 217 219 228 236 246 259 261 258 258 259 258 261 263 261 262 265 264 262 263 267 271 277 281 284 287
246 241 236 232 229 228 228 227 226 224 222 221 220 219 218 216 215 215 213 212 211 209 207 206 205 205 203 201 202 201 199 199 200 201 203 204 205 210 215 218 226 238 249 263 267 263 260 261 261 259 258 257 255 255 258 263 270 276 280 282 282 282 283
248 244 241 236 233 231 231 230 229 227 225 224 222 221 221 219 217 216 215 214 212 210 208 206 205 204 201 200 200 199 198 198 198 198 200 204 208 213 220 225 231 240 250 262 269 269 264 261 261 259 258 259 261 263 266 271 276 280 280 279 279 280 279
250 247 245 243 239 237 236 234 232 230 228 226 224 223 223 221 219 218 216 215 213 211 210 208 205 203 201 200 200 199 200 202 203 205 208 211 215 219 224 230 234 240 247 255 263 268 268 264 262 263 263 261 263 270 274 277 279 278 275 276 279 280 279
253 250 250 249 246 243 241 240 237 234 232 229 226 224 223 222 220 218 217 216 214 212 211 210 207 204 202 201 201 200 201 204 206 209 214 218 219 221 224 229 234 238 245 251 257 261 264 264 263 264 265 266 268 271 271 272 276 276 273 273 275 276 279
257 254 252 253 252 249 247 244 241 238 234 231 228 226 224 221 219 218 216 216 214 212 211 211 208 205 204 203 204 205 205 207 208 210 213 217 220 223 227 231 235 240 245 248 252 255 257 261 262 261 264 267 266 263 260 260 266 272 275 275 273 273 278
265 260 256 256 257 255 250 248 245 242 238 235 231 228 225 222 219 218 216 214 213 211 210 210 207 206 205 205 207 209 211 214 216 216 216 218 221 225 229 233 238 242 243 243 246 249 250 252 253 252 253 253 248 250 256 259 261 266 273 280 280 278 278
272 266 260 260 261 259 254 252 250 248 244 239 235 230 226 223 220 218 215 213 210 208 208 207 206 205 206 207 209 211 214 217 220 223 225 226 227 230 231 233 236 238 238 236 238 240 240 241 243 242 242 243 243 247 254 256 259 265 273 280 283 283 281
279 270 265 265 268 267 263 259 257 254 249 244 239 234 227 222 220 217 215 212 209 206 204 204 204 204 205 208 210 212 215 218 221 224 228 230 232 235 236 235 235 234 232 230 232 236 235 235 241 242 240 243 246 248 252 256 258 261 265 270 276 281 283
284 279 275 274 274 273 271 267 264 260 256 250 244 238 230 224 220 216 213 211 209 206 202 201 201 203 206 209 211 213 215 217 221 224 227 230 234 238 241 241 240 237 233 228 230 235 235 235 241 244 241 242 247 250 252 253 250 250 260 273 277 276 280
282 281 279 278 277 275 273 271 268 266 263 257 249 242 234 226 220 216 213 211 208 205 202 200 199 201 205 209 212 214 215 217 220 223 226 231 235 237 239 239 239 239 238 234 232 233 236 237 240 244 244 244 246 247 248 248 249 254 264 270 270 270 274
286 284 283 281 280 278 276 274 272 270 267 261 251 241 234 228 223 218 214 212 208 205 203 202 202 203 205 208 210 213 216 217 219 219 223 228 232 235 237 236 235 235 237 238 236 236 239 239 239 243 247 246 244 245 246 248 250 252 256 260 265 270 273
291 290 290 289 287 284 281 278 275 273 269 261 251 241 232 227 223 218 214 212 208 205 204 205 207 208 209 210 212 215 217 219 220 221 225 231 235 238 240 239 239 239 239 239 239 240 243 243 242 246 249 250 250 249 250 251 251 253 258 265 270 272 270
297 296 296 297 296 292 289 286 281 277 270 259 250 243 232 224 219 215 212 210 207 205 207 209 211 212 212 213 216 219 221 222 222 222 226 233 240 242 243 244 245 244 243 242 242 243 244 245 246 247 249 250 249 249 251 252 252 256 260 264 267 264 262
303 301 300 301 301 299 295 292 286 279 270 257 248 243 233 223 216 212 211 211 209 209 211 212 212 213 212 214 218 220 220 220 220 223 227 234 241 243 244 246 248 247 246 246 248 247 246 247 247 247 251 255 252 250 250 247 245 248 250 247 247 248 254
304 301 299 299 302 302 299 295 289 279 270 257 247 242 235 225 217 212 211 213 213 214 215 215 214 214 213 212 214 215 212 209 212 221 227 232 236 238 239 243 247 248 248 250 252 253 252 251 251 253 259 264 262 260 256 248 241 237 231 228 232 248 264
299 296 296 296 298 301 300 297 292 282 272 260 246 241 238 227 217 212 210 211 212 214 216 218 217 216 215 214 213 211 207 206 211 219 226 230 231 232 236 242 245 246 247 250 250 251 253 254 256 259 264 266 265 265 262 253 241 228 220 226 243 257 267
288 286 290 292 294 295 296 296 292 284 274 262 247 241 240 230 216 209 206 205 205 206 210 214 214 214 216 217 215 212 209 212 217 223 231 236 235 236 241 246 244 242 244 247 250 253 255 257 259 262 264 264 260 255 251 246 239 234 234 242 252 257 258
282 281 286 289 288 289 291 292 291 286 275 263 250 243 243 237 221 211 204 200 200 201 201 203 207 208 209 210 212 211 212 218 226 233 240 244 245 248 250 246 240 239 242 245 249 252 254 256 259 260 259 255 249 244 243 245 247 250 251 253 256 258 258
281 281 283 284 281 281 284 286 285 283 276 267 256 247 248 247 231 214 203 194 192 194 196 197 201 203 204 206 210 212 217 225 233 240 246 250 253 256 255 248 241 239 238 238 241 243 243 244 247 249 249 247 243 242 245 248 250 251 251 252 256 261 264
277 275 275 277 276 274 277 281 281 280 275 269 261 250 247 249 234 213 202 195 189 188 190 193 197 200 201 205 209 212 220 230 235 240 245 250 255 258 259 257 251 242 232 229 232 233 232 232 234 237 240 241 241 242 242 243 245 245 247 252 261 270 275
271 269 266 266 268 270 272 273 276 278 276 271 263 249 241 245 234 209 203 202 196 190 188 189 193 196 195 197 205 215 226 235 238 242 247 250 254 257 259 260 260 252 236 227 226 227 227 225 225 229 233 236 236 232 229 231 235 240 249 260 270 276 278
264 266 263 258 257 263 268 265 264 271 276 273 265 247 234 236 231 200 193 196 196 194 194 193 195 197 196 201 214 226 236 240 239 242 248 250 251 252 251 253 260 261 250 234 225 223 223 221 220 223 226 226 222 215 213 218 226 239 254 265 272 275 276
263 262 264 261 256 257 263 258 252 259 270 271 266 250 233 229 226 206 188 185 185 188 194 197 199 204 212 224 232 235 240 244 244 241 241 241 241 243 246 251 258 261 253 240 228 224 223 220 218 219 217 214 210 207 210 218 232 249 260 267 274 278 279
277 264 260 260 259 258 261 258 248 249 260 266 265 257 240 230 228 226 219 211 204 200 204 210 215 224 234 241 245 245 246 249 247 240 235 233 234 237 243 250 256 257 250 243 237 232 227 221 214 210 207 206 205 208 218 233 248 258 265 272 277 280 282
302 292 278 270 263 257 256 255 246 243 252 262 266 263 251 237 231 231 232 232 233 233 236 238 238 239 241 243 244 245 244 243 240 236 233 233 233 236 241 247 250 249 247 244 240 231 220 211 205 203 201 203 208 218 232 246 255 261 269 274 273 271 276
302 305 303 297 289 277 264 256 251 250 255 261 264 263 257 248 239 235 234 236 240 244 246 247 247 245 240 236 236 235 234 235 236 238 238 238 238 239 241 243 243 242 240 234 225 217 209 202 198 198 200 205 218 234 244 250 254 261 268 269 264 263 272
293 296 299 298 294 290 280 267 263 263 256 250 251 254 254 251 245 240 237 236 236 237 236 234 233 234 230 226 226 227 229 232 236 238 240 240 240 239 238 236 236 237 234 223 212 208 206 201 197 198 205 216 229 239 243 247 253 258 260 260 261 265 273
298 294 294 294 291 287 281 272 270 271 258 238 234 233 233 236 236 234 236 236 231 225 225 224 223 224 224 225 226 228 230 233 234 235 237 237 236 234 232 230 231 234 230 221 213 209 207 206 206 211 217 225 231 235 237 240 245 247 250 255 261 266 272
305 299 295 295 294 289 280 270 266 267 263 253 244 235 229 229 229 228 231 234 230 224 222 222 222 223 224 226 229 231 232 233 233 233 234 233 231 230 228 229 234 236 230 222 216 214 214 216 218 220 222 225 226 227 228 228 231 238 247 255 261 265 270
307 306 302 299 299 296 291 283 272 267 262 255 249 249 245 238 235 232 226 220 219 222 225 224 225 229 229 229 231 233 232 231 231 233 234 232 231 230 231 235 239 238 229 221 217 217 219 221 221 221 221 221 222 223 225 226 230 239 248 254 259 263 267
306 307 306 301 296 292 295 296 291 284 280 267 254 249 246 241 239 238 232 223 217 219 224 226 226 229 230 230 232 233 232 230 230 231 233 234 234 234 234 236 238 233 225 220 218 219 221 224 224 222 220 220 220 222 226 231 236 241 246 250 255 260 264
309 309 308 308 303 295 294 298 296 292 289 283 275 265 255 246 237 228 227 228 224 221 223 226 228 230 229 229 232 233 232 231 229 228 231 233 235 235 232 227 225 225 224 222 220 221 223 226 225 224 223 222 222 222 226 233 239 242 247 252 256 260 264
309 308 306 306 307 304 303 302 298 295 291 287 284 281 271 261 249 230 220 222 226 227 226 226 227 229 230 230 231 232 231 230 228 228 230 230 231 233 230 222 218 219 221 221 221 223 225 224 223 223 223 222 223 228 232 237 241 244 249 254 257 260 263